Location: Glendale
(37.4556°N, 88.6714°W)
Time: 23:51:19
(UTC+00:00)

Cosmos 292 Rocket - Pass Details

Date: 08 December 2019
Orbit: 673 x 694 km, 74.0° (Epoch: 24 January)

Event Time Altitude Azimuth Distance (km) Brightness Sun altitude
Rises 00:00:05 0° 349° (N) 3,078 7.1 -16.2°
Reaches altitude 10° 00:02:32 10° 356° (N) 2,158 6.2 -16.6°
Maximum altitude 00:07:09 42° 68° (ENE) 987 4.1 -17.5°
Drops below altitude 10° 00:11:43 10° 139° (SE) 2,141 6.1 -18.4°
Sets 00:14:07 0° 146° (SE) 3,051 6.9 -18.9°
